Location: Julian California
(33.0790°N, 116.6010°W)
Time: 19:51:59
(UTC-07:00)

Daily predictions for brighter satellites

Satellite Brightness Start Highest point End
(mag) Time Altitude Azimuth Time Altitude Azimuth Time Altitude Azimuth
Cosmos 1953 2.3 20:23:11 10° N 20:27:09 67° E 20:31:07 10° SSE
Cosmos 1655 Rocket 4.0 20:20:55 10° N 20:27:11 78° E 20:33:23 10° S
Aurora 2 Rocket 4.3 20:23:18 10° SW 20:28:08 31° SSE 20:34:42 10° ESE
Envisat 3.7 20:24:44 10° S 20:29:42 58° W 20:34:43 10° NNW
Cosmos 972 4.3 20:27:57 10° S 20:32:57 78° ESE 20:37:48 10° NNE
Cosmos 2266 Rocket 4.5 20:27:13 10° N 20:33:15 43° E 20:39:09 10° SSE
Cosmos 1943 3.2 20:30:33 10° NNW 20:36:13 83° ENE 20:41:50 10° SSE
Cosmos 1626 Rocket 4.4 20:33:21 10° SSW 20:37:43 55° W 20:42:05 10° N
SJ-6B 3.8 20:34:40 10° S 20:38:24 47° W 20:42:15 10° NNW
Cosmos 1048 Rocket 4.1 20:37:57 10° S 20:43:09 63° ESE 20:48:25 10° NNE
Cosmos 1607 4.0 20:39:35 10° NNW 20:45:58 84° ENE 20:52:11 10° SSE
Meteor 2-11 Rocket 4.4 20:40:11 10° S 20:46:14 82° E 20:52:18 10° N
Cosmos 1400 Rocket 3.0 20:43:43 10° SSW 20:47:45 75° W 20:51:45 10° N
USA 215 3.7 20:43:21 10° ESE 20:49:40 54° NE 20:56:01 10° NNW
CZ-3 Stage 3 3.0 20:47:31 10° WSW 20:50:27 63° SSE 21:01:31 10° E
Resurs 1-3 3.6 20:47:36 10° SSE 20:51:59 88° ENE 20:56:22 10° NNW
Cosmos 1844 Rocket 3.0 20:48:27 10° S 20:53:49 45° ESE 20:59:10 10° NE
Centaur AC-125 3.4 20:53:05 10° SW 20:55:39 17° S 20:56:28 15° SSE
NOAA 11 4.2 20:50:27 10° SSE 20:55:50 75° ENE 21:01:15 10° N
Cosmos 1844 4.3 20:52:04 10° SSE 20:57:11 36° ESE 21:02:22 10° NE
Cosmos 1470 3.7 20:54:28 10° NNW 20:58:13 49° W 21:02:00 10° SSW
Cosmos 1346 Rocket 4.4 20:56:46 10° NNE 20:59:45 20° ENE 21:01:27 16° ESE
Cosmos 1812 Rocket 3.7 20:55:40 10° N 21:00:01 75° W 21:04:22 10° S
YAOGAN 6 4.4 20:59:04 10° SSW 21:02:11 29° W 21:05:18 10° NW
Aureole 1 Rocket 3.1 21:00:27 10° SSW 21:03:25 54° WNW 21:06:54 10° N
USA 186 3.7 21:00:47 10° SSW 21:03:37 27° W 21:06:21 10° NW
Cosmos 1953 Rocket 3.7 21:00:11 10° S 21:04:23 52° E 21:08:38 10° NNE
Spot 2 Rocket 3.4 20:59:51 10° SSE 21:04:52 79° ENE 21:09:56 10° N
Cosmos 1758 Rocket 3.5 21:05:12 10° S 21:09:39 80° E 21:14:04 10° N
Cosmos 1452 Rocket 3.6 21:05:08 10° NNW 21:10:25 81° WSW 21:15:09 13° SSE
Cosmos 1420 Rocket 3.9 21:05:32 10° NNW 21:10:44 88° ENE 21:15:02 15° SSE
Meteor 1-24 Rocket 3.9 21:05:14 10° S 21:11:07 62° E 21:17:04 10° NNE
OAO 3 Copernicus 4.3 21:08:10 10° WNW 21:13:15 87° SSW 21:16:53 19° ESE
Cosmos 1932 4.4 21:10:43 10° NNW 21:16:56 81° ENE 21:21:21 20° SSE
Resurs 01 Rocket 2.5 21:13:33 10° S 21:17:47 48° W 21:22:04 10° NNW
OAO 3 Rocket 3.5 21:17:11 10° W 21:22:08 69° N 21:26:26 13° E
Cosmos 1908 4.4 21:21:43 10° NNE 21:24:58 25° ENE 21:25:38 24° E
Meteor 2-5 Rocket 4.4 21:23:35 10° SSW 21:29:24 58° W 21:35:14 10° N
H-2A R/B 2.2 21:30:37 26° SE 21:33:30 59° ENE 21:38:46 10° N
Cosmos 1340 4.4 21:32:27 10° NNE 21:35:08 19° ENE 21:35:08 19° ENE
Cosmos 921 Rocket 3.7 21:32:40 10° N 21:36:54 40° ENE 21:38:12 32° ESE
SPOT 5 4.1 21:36:22 24° E 21:37:59 28° ENE 21:42:23 10° NNE
Cosmos 1238 Rocket 3.0 21:37:14 19° SSW 21:39:03 45° W 21:41:55 10° N
Iridium 18 4.4 21:38:53 50° ESE 21:39:09 52° E 21:42:39 10° NNE
Cosmos 494 Rocket 3.9 21:35:40 10° SSW 21:40:52 85° ESE 21:46:10 10° NNE
ATLAS 3B R/B 3.7 21:36:51 10° N 21:42:33 30° NE 21:45:53 20° E
Cosmos 1674 2.5 21:42:52 37° S 21:44:16 82° E 21:48:06 10° N
USA 238 DEB 4.4 21:37:49 10° NNW 21:44:37 44° NE 21:48:21 25° ESE
Lacrosse 5 4.4 21:40:42 10° W 21:44:42 23° NW 21:48:45 10° NNE
USA 238 4.4 21:37:56 10° NNW 21:44:43 44° NE 21:48:27 25° ESE
SL-08 RB Rocket 3.7 21:45:38 35° SSE 21:47:35 80° ENE 21:52:15 10° N
MetOp-B 4.1 21:46:03 30° SSE 21:48:45 83° ENE 21:54:08 10° N
Cosmos 1461 3.4 21:48:40 42° SE 21:49:12 44° ESE 21:53:41 10° NE
Meteor 2-1 Rocket 4.5 21:44:19 10° N 21:50:09 57° E 21:52:27 35° SE
Cosmos 1244 Rocket 4.5 21:52:13 10° N 21:58:36 87° W 22:02:04 29° S
Centaur D-1AR AC-36 3.6 21:49:28 10° W 21:59:34 25° SSW 22:00:57 23° S
Cosmos 220 Rocket 3.8 21:58:55 52° S 21:59:51 76° ESE 22:04:04 10° NNE
Cosmos 1745 Rocket 4.3 21:55:15 10° N 22:01:20 48° E 22:03:09 38° SE
SEDSat Delta rocket 3.6 21:56:35 10° SW 22:01:13 44° S 22:01:13 44° S
DMSP B5D2-2 3.9 21:57:10 10° NNE 22:02:25 83° ESE 22:04:53 32° S
Cosmos 1726 2.3 21:59:43 10° N 22:03:12 55° ENE 22:03:12 55° ENE
SL-08 R/B 4.4 21:59:55 10° N 22:06:03 70° E 22:08:16 41° SSE
ATLAS 2AS CENTAUR R/B 4.1 21:59:56 10° SW 22:07:18 45° NW 22:15:00 10° NNE
ERS-1 Rocket 2.9 22:06:45 46° S 22:08:19 87° WSW 22:13:22 10° NNW
Meteor 2-10 4.2 22:04:41 10° N 22:10:08 65° E 22:11:28 49° SE
Cosmos 2251 Rocket 3.4 22:11:51 38° S 22:13:57 85° ESE 22:19:18 10° NNE
Landsat 7 4.0 22:16:58 53° E 22:17:19 54° ENE 22:21:57 10° N
Cosmos 2278 Rocket 2.0 22:16:23 41° S 22:18:24 78° ESE 22:24:05 10° NNE
Cosmos-2242 4.3 22:16:25 10° NNW 22:20:27 36° W 22:21:58 28° SW
Cosmos 2084 3.8 22:17:14 10° NW 22:20:45 49° WSW 22:20:45 49° WSW
ARGOS 4.3 22:18:08 22° SSW 22:21:01 37° W 22:26:01 10° NNW
Meteor 1-21 Rocket 4.2 22:19:01 44° S 22:21:01 84° E 22:26:51 10° N
Aurora 2 Rocket 4.1 22:15:09 10° WSW 22:21:37 47° S 22:23:22 42° SE
S3M 4.1 22:19:53 29° SSW 22:23:19 74° W 22:29:44 10° N
CZ-2C R/B 3.9 22:25:43 39° E 22:26:29 40° ENE 22:31:50 10° N
SL-14 R/B 3.7 22:29:02 57° N 22:29:02 57° N 22:32:12 10° N
Helios 1A 3.0 22:32:09 76° NW 22:32:09 76° NW 22:36:06 10° NNW
USA 215 4.2 22:30:40 29° SSW 22:32:43 35° SW 22:38:37 10° WNW
Cosmos 1709 Rocket 4.4 22:28:50 10° N 22:34:41 43° E 22:35:09 42° E
ATLAS 3B CENTAUR R/B 3.6 22:17:10 10° WSW 22:34:56 53° S 22:37:27 43° SE
Cosmos 1842 Rocket 3.6 22:31:41 10° N 22:35:49 74° WNW 22:35:49 74° WNW
Terra 2.1 22:37:00 54° ENE 22:37:00 54° ENE 22:41:22 10° N
COSMOS 2406 3.2 22:32:54 10° NNW 22:38:39 75° WSW 22:39:30 63° SSW
Helios 1B rocket 2.8 22:37:26 10° N 22:41:10 61° NW 22:41:10 61° NW
NOSS 2-2 (E) 4.3 22:44:22 41° NNE 22:44:22 41° NNE 22:47:13 10° NNE
NOSS 3-4 (A) 3.7 22:39:15 14° SW 22:44:35 66° WNW 22:50:53 10° NNE
NOSS 3-4 (C) 3.7 22:39:34 15° SW 22:44:40 67° WNW 22:50:58 10° NNE
CENTAUR R/B 4.3 22:43:37 10° NNW 22:50:41 32° NE 22:54:21 23° E
Cosmos 1375 Rocket 4.4 22:44:35 10° NNW 22:51:11 82° ENE 22:52:04 68° SE
ATLAS 5 CENTAUR R/B 2.1 22:57:12 58° NNW 22:57:12 58° NNW 23:01:22 10° NNE
Cosmos 1626 4.0 23:02:05 29° N 23:02:05 29° N 23:04:02 10° N
Cosmos 2297 4.0 23:02:34 56° ENE 23:02:34 56° ENE 23:07:16 10° NNE
Cosmos 2315 Rocket 3.9 23:04:20 72° SSW 23:05:02 84° W 23:11:24 10° N
OAO 3 Rocket 4.1 23:00:52 10° WNW 23:04:14 43° W 23:04:14 43° W
Cosmos 2221 3.6 23:05:48 10° NNW 23:08:55 43° NW 23:08:55 43° NW
Cosmos 2082 Rocket 3.0 23:05:48 10° N 23:10:56 40° ENE 23:10:56 40° ENE
H-2A R/B 4.4 23:11:15 11° WSW 23:13:14 13° W 23:15:46 10° WNW
Cosmos 1833 Rocket 3.2 23:08:22 10° N 23:13:23 47° NE 23:13:23 47° NE
SPOT 5 4.4 23:15:36 27° WSW 23:15:54 27° W 23:20:17 10° NW
RESURS DK-1 4.3 23:20:00 26° NNE 23:20:00 26° NNE 23:21:55 10° NNE
CZ-2C R/B 2.8 23:16:20 10° N 23:21:22 67° NW 23:21:22 67° NW
ATLAS 3B R/B 3.2 23:27:08 10° NW 23:33:08 44° WSW 23:33:08 44° WSW
NOSS 3-2 (A) 4.5 23:40:27 10° NW 23:47:57 49° WSW 23:48:27 48° SW
